Regional Weather Roundup
Issued by NWS

Home | Current Version | Previous Version | Graphics & Text | Print | Product List | Glossary On
Versions: 1 2 3 4 5 6 7 8 9 10 11 12 13 14 15 16 17 18 19 20 21 22 23 24 25 26 27 28 29 30 31 32 33 34 35 36 37 38 39 40 41 42 43 44 45 46 47 48 49 50
608
ASUS43 KFSD 171102
RWRSD

WEATHER ROUNDUP FOR SOUTH DAKOTA
NATIONAL WEATHER SERVICE SIOUX FALLS SD
500 AM CST SAT FEB 17 2018

NOTE: "FAIR" INDICATES FEW OR NO CLOUDS BELOW 12,000 FEET WITH NO
SIGNIFICANT WEATHER AND/OR OBSTRUCTIONS TO VISIBILITY.


SDZ001>005-009-010-012>017-171200-
NORTHWEST AND NORTH CENTRAL SOUTH DAKOTA

CITY           SKY/WX    TMP DP  RH WIND       PRES   REMARKS
BUFFALO          N/A     23  19  85 NW16      29.77R WCI  10
FAITH            N/A     22  21  96 W10       29.84R WCI  11
MOBRIDGE       CLOUDY    18  13  80 NW5       29.81R WCI  11
$$

SDZ012>016-024>037-041>051-057-063-072>074-171200-
SOUTHWEST AND SOUTH CENTRAL SOUTH DAKOTA

CITY           SKY/WX    TMP DP  RH WIND       PRES   REMARKS
RAPID CTY ARPT CLOUDY    25  15  66 W5        29.85R WCI  19
PIERRE         CLEAR     15  11  83 W12       29.84R WCI   2
CUSTER         MOCLDY    19   7  59 W8        29.79R WCI   9
ELLSWORTH AFB  CLOUDY    23  15  69 W8        29.84R WCI  14
PHILIP         MOCLDY    18  12  77 W14       29.85R WCI   4
PINE RIDGE     CLEAR     22  18  85 SW6       29.89R WCI  14
SPEARFISH      MIX PCPN  28  19  69 W24G35    29.83R WCI  14
WINNER         FAIR      27  21  78 NW7       29.85R WCI  19
$$

SDZ004>011-016>023-039-040-171200-
NORTHEAST SOUTH DAKOTA

CITY           SKY/WX    TMP DP  RH WIND       PRES   REMARKS
ABERDEEN       CLEAR     17  15  92 NW6       29.83S WCI   9
WATERTOWN      CLOUDY    20  18  92 SW6       29.79R WCI  12
BROOKINGS      CLOUDY    24  21  88 S7        29.81F WCI  16
SISSETON         N/A     22  17  81 W8        29.80S WCI  12
$$

SDZ017-020-022-023-036>040-048>070-171200-
SOUTHEAST SOUTH DAKOTA

CITY           SKY/WX    TMP DP  RH WIND       PRES   REMARKS
SIOUX FALLS    SNOW      25  23  92 S8        29.84S VSB 1/2 WCI  16
HURON          CLOUDY    18  17  96 NW5       29.83S WCI  11
CHAMBERLAIN    MOCLDY    27  24  90 CALM      29.83S
MITCHELL       CLOUDY    27  26  96 CALM      29.85R
YANKTON        LGT SNOW  26  24  92 S3        29.86S FOG
$$

ABBREVIATIONS USED IN REMARKS
   TC - TEMPERATURE IN CELSIUS
  WCI - WIND CHILL INDEX
   HX - HEAT INDEX
  VSB - VISIBILITY





USA.gov is the U.S. government's official web portal to all federal, state and local government web resources and services.